Find Kelpie-1

NORAD ID: 55107 Int'l Des: 2023-001 Owner: CLAAC Country: UK operational
LEOCIRCULARRETROGRADESSO

实时位置

正在加载3D地球...

关于 Kelpie-1

正在加载描述...

即将过境

Passes for default location (London). Set your location on the main map for personalized predictions.

高度历史

Loading altitude history...

两行轨道根数

1 55107U 23001DC 26106.93443640 .00002839 00000-0 28857-3 0 9997
2 55107 97.9208 183.4100 0010842 120.0383 240.1912 14.91568760169152
Epoch: Apr 16, 2026 • Age: 10 hours

当前状态

高度 590.0 km
速度 7.57 km/s
星下点 21.85°N, 29.65°E
发射日期 Jan 3, 2023
运行时间 3.2 years
类型 other

技术详情

分类 Payload
质量 4.00 kg
干质量 4.00 kg
总质量 4.00 kg
长度 0.30 m
直径 0.10 m
跨度 0.30 m
形状 Box
制造商 CLAAC
平台类型 Cubesat 3U
阶段状态 In Orbit
所有者/国家 CLAAC/UK

Most Searched